Find Starlink 3342

NORAD ID: 50816 Int'l Des: 2022-001 Owner: SPXS Country: US Constellation: starlink operational
LEOCIRCULAR

实时位置

正在加载3D地球...

关于 Starlink 3342

正在加载描述...

即将过境

Passes for default location (London). Set your location on the main map for personalized predictions.

高度历史

Loading altitude history...

两行轨道根数

1 50816U 22001P 26121.20199616 .00034437 00000-0 17966-2 0 9993
2 50816 53.2127 289.7273 0001190 44.7099 315.3992 15.15658654238386
Epoch: May 1, 2026 • Age: 13 hours

当前状态

高度 522.7 km
速度 7.61 km/s
星下点 42.12°N, 65.45°W
发射日期 Jan 6, 2022
运行时间 4.3 years
类型 internet

技术详情

分类 Payload
质量 297.00 kg
干质量 275.00 kg
总质量 297.00 kg
长度 0.20 m
直径 2.80 m
跨度 9.00 m
形状 Box + pan
制造商 SPXS
平台类型 Starlink
阶段状态 In Orbit
所有者/国家 SPXS/US

Most Searched